TimeEDT,TemperatureF,Dew PointF,Humidity,Sea Level PressureIn,VisibilityMPH,Wind Direction,Wind SpeedMPH,Gust SpeedMPH,PrecipitationIn,Events,Conditions,WindDirDegrees,DateUTC
12:56 AM,48.9,34.0,56,30.27,10.0,East,4.6,-,N/A,,Clear,90,2013-04-28 04:56:00
1:56 AM,46.9,34.0,61,30.26,10.0,East,5.8,-,N/A,,Clear,90,2013-04-28 05:56:00
2:56 AM,46.9,32.9,58,30.25,10.0,East,6.9,-,N/A,,Clear,80,2013-04-28 06:56:00
3:56 AM,45.9,32.0,58,30.25,10.0,East,6.9,-,N/A,,Clear,80,2013-04-28 07:56:00
4:56 AM,43.0,32.9,68,30.25,10.0,East,5.8,-,N/A,,Clear,80,2013-04-28 08:56:00
5:56 AM,43.9,32.0,63,30.25,10.0,East,6.9,-,N/A,,Clear,80,2013-04-28 09:56:00
6:21 AM,44.6,33.8,66,30.23,10.0,East,6.9,-,N/A,,Clear,80,2013-04-28 10:21:00
6:56 AM,45.9,32.9,61,30.24,10.0,ENE,5.8,-,N/A,,Clear,70,2013-04-28 10:56:00
7:56 AM,50.9,34.0,52,30.26,10.0,East,3.5,-,N/A,,Clear,100,2013-04-28 11:56:00
8:56 AM,57.9,34.9,42,30.25,10.0,SSE,5.8,-,N/A,,Clear,160,2013-04-28 12:56:00
9:56 AM,63.0,34.9,35,30.24,10.0,SSE,8.1,-,N/A,,Clear,150,2013-04-28 13:56:00
10:56 AM,66.9,36.0,32,30.23,10.0,South,9.2,-,N/A,,Clear,190,2013-04-28 14:56:00
11:56 AM,68.9,34.9,29,30.21,10.0,SSW,15.0,21.9,N/A,,Clear,200,2013-04-28 15:56:00
12:56 PM,70.0,34.0,27,30.18,10.0,South,12.7,21.9,N/A,,Clear,180,2013-04-28 16:56:00
1:56 PM,68.9,34.0,28,30.16,10.0,South,13.8,20.7,N/A,,Clear,170,2013-04-28 17:56:00
2:56 PM,68.9,34.9,29,30.14,10.0,South,16.1,20.7,N/A,,Scattered Clouds,170,2013-04-28 18:56:00
3:56 PM,68.0,34.9,29,30.13,10.0,South,15.0,21.9,N/A,,Clear,190,2013-04-28 19:56:00
4:56 PM,66.9,34.0,30,30.11,10.0,South,12.7,-,N/A,,Scattered Clouds,180,2013-04-28 20:56:00
5:56 PM,65.8,32.9,29,30.10,10.0,South,15.0,-,N/A,,Scattered Clouds,170,2013-04-28 21:56:00
6:56 PM,63.9,34.9,34,30.10,10.0,South,10.4,-,N/A,,Mostly Cloudy,190,2013-04-28 22:56:00
7:56 PM,61.9,34.0,35,30.11,10.0,South,9.2,-,N/A,,Mostly Cloudy,170,2013-04-28 23:56:00
8:56 PM,57.9,37.9,47,30.13,10.0,SSW,23.0,32.2,0.00,Rain,Light Rain,210,2013-04-29 00:56:00
9:56 PM,50.9,43.0,74,30.15,10.0,SSE,9.2,-,0.00,Rain,Light Rain,150,2013-04-29 01:56:00
10:56 PM,50.0,45.0,83,30.15,10.0,SSE,8.1,-,0.01,Rain,Light Rain,160,2013-04-29 02:56:00
11:56 PM,48.9,45.9,89,30.14,10.0,SSE,10.4,-,0.02,Rain,Light Rain,150,2013-04-29 03:56:00